Deer Park, WA
on Saturday, November 17, 2012

Saturday
Previous Day Next Day
Daily Summary
 ActualAverageRecord
Temperature
Mean Temperature °F 33°F  
Max Temperature 47°F 41°F 53°F (2008)
Min Temperature 35°F 26°F 8°F (2000)
Degree Days
Heating Degree Days 24 32  
Month to date heating degree days 460 493  
Since 1 July heating degree days 1372 1561  
Cooling Degree Days 0 0  
Month to date cooling degree days 0 0  
Year to date cooling degree days 232 187  
Moisture
Dew Point 38°F   
Average Humidity 86    
Maximum Humidity 100    
Minimum Humidity 71    
Precipitation
Precipitation 0.32 in 0.11 in 0.45 in (2007)
Month to date precipitation 1.34 1.78  
Year to date precipitation 21.34 17.84  
Wind
Wind Speed 7 mph   
Max Wind Speed 24 mph   
Max Gust Speed 31 mph   
Visibility 9 miles   
Events Rain   

Key: T is trace of precipitation, MM is missing value
Source: NWS Daily Summary
Time(PST)TemperatureDew PointHumidity Pressure Visibility Wind DirectionWind SpeedGust SpeedPrecipitationEvents Conditions
12:53 AM 36.0°F 35.1°F 97% 29.94 in 10.0 miles North 3.5 mph - N/A   Overcast
1:53 AM 36.0°F 34.0°F 93% 29.94 in 10.0 miles NNE 6.9 mph - N/A   Overcast
2:53 AM 35.1°F 34.0°F 96% 29.93 in 10.0 miles NNE 8.1 mph - N/A   Scattered Clouds
3:53 AM 35.1°F 34.0°F 96% 29.91 in 10.0 miles North 3.5 mph - N/A   Overcast
4:53 AM 36.0°F 34.0°F 93% 29.90 in 10.0 miles NNE 6.9 mph - N/A   Overcast
5:53 AM 37.0°F 35.1°F 93% 29.88 in 10.0 miles NNE 5.8 mph - N/A   Overcast
6:53 AM 37.0°F 35.1°F 93% 29.86 in 10.0 miles NNE 5.8 mph - N/A   Mostly Cloudy
7:53 AM 37.9°F 35.1°F 89% 29.85 in 10.0 miles North 8.1 mph - N/A   Overcast
8:53 AM 39.0°F 36.0°F 89% 29.84 in 10.0 miles NNE 9.2 mph - N/A   Overcast
9:53 AM 41.0°F 37.0°F 86% 29.82 in 10.0 miles NNE 3.5 mph - N/A   Overcast
10:53 AM 42.1°F 37.9°F 85% 29.78 in 10.0 miles North 8.1 mph - 0.01 in   Overcast
11:53 AM 43.0°F 37.9°F 82% 29.74 in 10.0 miles North 5.8 mph - N/A   Overcast
12:53 PM 45.0°F 37.9°F 76% 29.70 in 10.0 miles NNE 9.2 mph - N/A   Overcast
1:53 PM 46.0°F 37.9°F 73% 29.66 in 10.0 miles NNE 9.2 mph - N/A   Overcast
2:53 PM 44.1°F 37.9°F 79% 29.65 in 10.0 miles North 8.1 mph - 0.00 in Rain Light Rain
3:53 PM 42.1°F 39.9°F 92% 29.66 in 4.0 miles Calm Calm - 0.05 in Rain Rain
4:53 PM 42.1°F 39.9°F 92% 29.64 in 7.0 miles North 5.8 mph - 0.03 in Rain Light Rain
5:53 PM 42.1°F 41.0°F 96% 29.62 in 10.0 miles NNE 3.5 mph - 0.00 in Rain Light Rain
6:53 PM 42.1°F 41.0°F 96% 29.60 in 10.0 miles Calm Calm - 0.01 in   Overcast
7:53 PM 42.1°F 41.0°F 96% 29.59 in 7.0 miles ENE 5.8 mph - 0.03 in   Overcast
8:53 PM 42.1°F 41.0°F 96% 29.59 in 5.0 miles West 4.6 mph - 0.02 in Rain Rain
9:19 PM 42.8°F 42.8°F 100% 29.56 in 3.0 miles Calm Calm - 0.06 in Rain Rain
9:36 PM 42.8°F 42.8°F 100% 29.57 in 5.0 miles South 4.6 mph - 0.08 in Rain Rain
9:53 PM 44.1°F 43.0°F 96% 29.60 in 6.0 miles South 10.4 mph - 0.10 in Rain Light Rain
10:06 PM 44.6°F 42.8°F 93% 29.59 in 7.0 miles SW 17.3 mph - 0.01 in Rain Light Rain
10:34 PM 42.8°F 39.2°F 87% 29.61 in 9.0 miles SW 12.7 mph 23.0 mph 0.02 in Rain Light Rain
11:01 PM 41.0°F 39.2°F 93% 29.64 in 8.0 miles SSW 12.7 mph - 0.01 in Rain Light Rain
11:06 PM 41.0°F 39.2°F 93% 29.65 in 9.0 miles SSW 12.7 mph - 0.01 in Rain Light Rain
11:23 PM 41.0°F 39.2°F 93% 29.66 in 6.0 miles SSW 13.8 mph - 0.03 in Rain Light Rain
11:46 PM 39.2°F 37.4°F 93% 29.67 in 10.0 miles SSW 15.0 mph - 0.05 in Rain Light Rain
11:53 PM 39.9°F 37.9°F 93% 29.70 in 10.0 miles South 15.0 mph 24.2 mph 0.05 in Rain Light Rain
Moon Phase
Nov. 17 Nov. 20 Nov. 28 Dec. 06 Dec. 13
Sunrise:06:59 AM (PST) Moon Rise:10:47 AM (PST)
Sunset:04:09 PM (PST) Moon Set:08:26 PM (PST)

Copyright © 2014 The Weather Underground, Inc.